TimeCEST,TemperatureF,Dew PointF,Humidity,Sea Level PressureIn,VisibilityMPH,Wind Direction,Wind SpeedMPH,Gust SpeedMPH,PrecipitationIn,Events,Conditions,WindDirDegrees,DateUTC
12:55 AM,55.4,51.8,88,30.06,-9999.0,West,3.5,-,N/A,,Clear,260,2013-05-19 22:55:00
1:55 AM,53.6,51.8,94,30.06,6.2,ESE,2.3,-,N/A,,Scattered Clouds,110,2013-05-19 23:55:00
2:00 AM,54,52,91,30.08,12,ESE,2.3,,,,,110,2013-05-20 00:00:00
2:55 AM,53.6,51.8,94,30.06,6.2,East,2.3,-,N/A,,Scattered Clouds,100,2013-05-20 00:55:00
3:55 AM,51.8,50.0,94,30.06,6.2,East,2.3,-,N/A,,Partly Cloudy,100,2013-05-20 01:55:00
4:55 AM,50.0,48.2,94,30.06,6.2,East,2.3,-,N/A,,Partly Cloudy,90,2013-05-20 02:55:00
5:00 AM,51,49,88,30.08,12,East,2.3,,,,Scattered Clouds,90,2013-05-20 03:00:00
5:55 AM,46.4,42.8,87,30.06,6.2,NNE,3.5,-,N/A,,Scattered Clouds,30,2013-05-20 03:55:00
6:55 AM,51.8,48.2,88,30.06,6.2,NNE,3.5,-,N/A,,Scattered Clouds,30,2013-05-20 04:55:00
7:55 AM,57.2,51.8,82,30.09,6.2,NE,2.3,-,N/A,,Scattered Clouds,50,2013-05-20 05:55:00
8:00 AM,56,52,83,30.10,12,NE,2.3,,,,,50,2013-05-20 06:00:00
8:55 AM,62.6,57.2,82,30.09,6.2,Calm,Calm,-,N/A,,Scattered Clouds,0,2013-05-20 06:55:00
9:55 AM,66.2,59.0,78,30.09,6.2,SW,9.2,-,N/A,,Scattered Clouds,230,2013-05-20 07:55:00
10:55 AM,68.0,55.4,64,30.09,6.2,WSW,6.9,-,N/A,,Scattered Clouds,240,2013-05-20 08:55:00
11:00 AM,68,56,56,30.10,12,WSW,6.9,,,,Partly Cloudy,240,2013-05-20 09:00:00
11:55 AM,69.8,50.0,49,30.09,6.2,WNW,6.9,-,N/A,,Scattered Clouds,290,2013-05-20 09:55:00
12:55 PM,69.8,53.6,56,30.09,6.2,WSW,15.0,-,N/A,,Scattered Clouds,240,2013-05-20 10:55:00
1:55 PM,71.6,51.8,50,30.09,6.2,SSW,11.5,-,N/A,,Partly Cloudy,210,2013-05-20 11:55:00
2:00 PM,72,52,38,30.11,16,SSW,11.5,,,,,210,2013-05-20 12:00:00
2:55 PM,71.6,50.0,46,30.09,6.2,SW,16.1,-,N/A,,Partly Cloudy,220,2013-05-20 12:55:00
3:55 PM,69.8,51.8,53,30.09,6.2,SW,13.8,-,N/A,,Partly Cloudy,230,2013-05-20 13:55:00
4:55 PM,69.8,50.0,49,30.09,6.2,SW,11.5,-,N/A,,Partly Cloudy,220,2013-05-20 14:55:00
5:00 PM,69,50,40,30.11,16,SW,11.5,,,,Scattered Clouds,220,2013-05-20 15:00:00
5:55 PM,68.0,50.0,52,30.09,6.2,West,10.4,-,N/A,,Partly Cloudy,260,2013-05-20 15:55:00
7:55 PM,62.6,46.4,55,30.09,6.2,West,4.6,-,N/A,,Partly Cloudy,260,2013-05-20 17:55:00
8:00 PM,63,47,45,30.10,16,West,4.6,,,,,260,2013-05-20 18:00:00
8:55 PM,60.8,53.6,77,30.09,6.2,Calm,Calm,-,N/A,,Partly Cloudy,0,2013-05-20 18:55:00
9:55 PM,59.0,55.4,88,30.12,6.2,East,4.6,-,N/A,,Partly Cloudy,100,2013-05-20 19:55:00
10:55 PM,57.2,57.2,100,30.12,6.2,NNE,1.2,-,N/A,,Partly Cloudy,30,2013-05-20 20:55:00
11:00 PM,57,56,97,30.13,12,NNE,1.2,,,,Scattered Clouds,30,2013-05-20 21:00:00
11:55 PM,55.4,55.4,100,30.12,6.2,ESE,3.5,-,N/A,,Partly Cloudy,110,2013-05-20 21:55:00